Simultaneous Nadir Overpasses (SNOs) Predictions

Prediction of SNOs between GOES-15 and TERRA Satellite Orbit:

Table of predicted SNOs for the next 14.0 days since TLE Epoch: 10/5/2013
Index Date Time (GOES-15) GOES-15 Lat,Lon TERRA Lat,Lon Distance(km) Time Diff (sec)
1 10/06/2013 19:31:06 -0.38,-135.18 -0.30,-135.68 56.34 80
2 10/08/2013 19:21:32 -0.38,-135.11 -0.91,-132.71 273.76 80
3 10/09/2013 07:42:55 0.37,-135.10 -0.23,-137.89 317.42 80
4 10/11/2013 07:28:01 0.37,-135.03 0.40,-134.92 11.62 80
5 10/13/2013 07:15:46 0.37,-134.95 0.97,-131.95 340.29 80
6 10/13/2013 19:37:01 -0.36,-134.91 0.11,-137.10 249.21 80
7 10/15/2013 19:27:26 -0.36,-134.83 -0.48,-134.13 79.33 80
8 10/17/2013 19:15:12 -0.36,-134.75 -1.15,-131.17 407.53 80
9 10/18/2013 07:36:34 0.35,-134.74 0.02,-136.35 182.89 80




NCC Satellite Simultaneous Nadir Overpasses (SNOs) Prediction Service
